Temperature
18 18 17 17 17 17 17 17 17 17 17 17 17 17 17 17 17 17 16 16 16 16 16 16 16 16 16 16 16 16 16 16 16 15 15 15 15 15 15 14 14 14 14
18 17 17 17 17 17 17 17 17 17 17 17 17 17 17 17 16 16 16 16 16 16 16 16 16 16 16 16 16 16 16 16 16 15 15 14 14 14 14 14 13 13 13
17 17 17 17 17 17 17 17 17 17 17 16 16 16 16 16 16 16 16 16 15 15 15 15 15 15 15 15 15 15 15 15 15 15 14 14 13 13 13 13 12 12 12
17 17 17 17 17 17 17 17 16 16 16 16 16 16 16 16 16 16 15 15 15 15 15 15 15 15 15 15 15 15 15 14 14 14 14 13 13 12 12 12 12 11 11
17 17 17 17 17 16 16 16 16 16 16 16 16 15 15 15 15 15 15 15 15 15 14 14 14 14 14 14 14 14 14 14 13 13 13 12 12 11 11 11 11 10 10
17 17 17 16 16 16 16 16 16 16 15 15 15 15 15 15 15 15 14 14 14 14 14 14 14 13 13 13 13 13 13 13 13 12 12 11 11 10 10 10 10 10 9
17 16 16 16 16 16 16 15 15 15 15 15 15 15 14 14 14 14 14 14 14 13 13 13 13 12 12 12 12 12 12 12 11 11 11 10 10 9 9 9 9 8 8
16 16 16 16 16 15 15 15 15 15 15 14 14 14 14 14 14 14 13 13 13 13 13 12 12 12 12 12 12 11 11 10 10 10 10 9 9 8 8 8 8 8 7
16 16 16 16 15 15 15 15 15 14 14 14 14 13 13 13 13 13 13 13 12 12 12 12 11 11 11 11 11 10 10 9 9 8 8 8 8 8 7 7 7 7 7
16 16 15 15 15 15 14 14 14 14 14 13 13 13 13 12 12 12 12 12 12 11 11 11 10 10 10 10 10 9 9 8 8 8 7 7 7 7 7 6 6 6 6
16 15 15 15 14 14 14 14 14 13 13 13 12 12 12 12 11 11 11 12 11 11 10 10 9 9 9 8 8 8 8 8 7 7 7 6 6 6 6 6 5 5 5
15 15 14 14 14 14 14 13 13 13 13 12 12 11 11 11 11 11 11 10 10 10 10 9 8 8 8 8 7 7 7 7 7 6 6 6 6 5 5 5 5 5 4
15 14 14 14 13 13 13 13 13 13 12 12 11 11 10 10 10 10 10 10 9 9 8 8 8 7 7 7 6 6 6 6 6 6 6 5 5 5 5 4 4 4 4
14 14 13 13 13 13 12 12 12 12 12 11 11 10 10 9 9 9 9 9 8 8 8 7 7 7 6 6 6 6 6 6 5 5 5 5 4 4 4 4 4 4 3
14 13 13 13 12 12 12 12 11 11 11 11 11 10 10 9 9 9 8 8 8 7 7 7 6 6 6 6 5 5 5 5 5 5 4 4 4 4 4 3 3 3 3
13 12 12 12 12 12 11 11 10 10 10 10 10 10 9 9 8 8 8 7 7 7 7 6 6 6 5 5 5 5 5 4 4 4 4 4 4 3 3 3 3 3 3
12 12 12 11 11 11 11 11 10 9 9 9 9 8 8 8 7 7 7 7 6 6 6 6 6 5 5 5 5 5 4 4 4 4 4 3 3 3 3 3 3 2 2
12 11 11 11 10 10 10 10 10 9 8 8 8 7 7 7 7 7 6 6 6 6 6 6 5 5 5 5 5 4 4 4 4 4 3 3 3 3 3 3 2 2 2
11 11 10 10 10 10 9 9 9 8 8 7 7 7 6 6 6 6 6 6 6 6 5 5 5 5 5 5 4 4 4 4 4 4 3 3 3 3 3 2 2 2 2
10 10 10 9 9 9 9 9 8 8 8 7 7 6 6 6 6 6 6 6 6 6 5 5 5 5 5 5 4 4 4 4 4 3 3 3 3 3 2 2 2 2 2
9 9 9 9 9 9 8 8 8 8 7 7 7 7 6 6 6 6 6 6 6 6 5 5 5 5 5 4 4 4 4 4 4 3 3 3 3 3 2 2 2 2 2
9 9 9 9 8 8 8 8 8 7 7 7 7 6 6 6 6 6 6 6 6 5 5 5 5 5 5 5 4 4 4 4 4 3 3 3 3 3 3 2 2 2 2
9 9 8 8 8 8 8 8 7 7 7 7 7 6 6 6 6 6 6 6 6 6 5 5 5 5 5 5 4 4 4 4 4 4 3 3 3 3 3 2 2 2 2
9 9 8 8 8 8 8 8 7 7 7 7 7 7 6 6 6 6 6 6 6 6 5 5 5 5 5 5 4 4 4 4 4 4 3 3 3 3 3 2 2 2 2
9 8 8 8 8 8 8 8 8 7 7 7 7 7 7 6 6 6 6 6 6 6 6 5 5 5 5 5 4 4 4 4 4 4 4 3 3 3 3 3 2 2 2
9 9 8 8 8 8 8 8 8 7 7 7 7 7 7 6 6 6 6 6 6 6 5 5 5 5 5 5 4 4 4 4 4 4 4 4 3 3 3 3 3 2 2
Wind_Speed
5 5 4 4 4 5 5 5 5 5 5 5 6 5 6 6 5 5 4 4 4 3 3 3 3 2 2 2 2 2 3 4 4 2 3 4 5 6 7 9 9 9 10
4 4 4 4 4 4 4 4 5 5 5 4 4 4 4 5 5 5 5 4 4 4 3 3 2 3 3 3 3 3 3 4 5 5 3 4 5 4 5 6 8 8 9
5 4 4 4 4 4 3 4 4 5 4 4 4 5 5 5 5 5 5 4 4 3 4 5 4 5 4 4 5 4 4 5 5 6 4 3 4 4 5 5 7 7 9
6 5 4 4 4 4 3 4 4 4 5 5 4 4 5 5 5 6 6 6 6 6 5 5 5 5 5 6 6 5 6 7 7 8 6 4 4 3 4 5 5 5 5
6 5 4 4 4 4 4 4 4 5 5 5 5 5 5 5 5 7 7 8 8 8 8 7 8 10 10 8 7 6 7 7 7 7 6 5 5 4 3 3 4 3 5
7 6 5 5 5 5 5 5 6 5 5 6 6 6 5 4 7 10 10 9 9 9 9 8 9 11 15 16 16 14 11 9 8 7 5 6 4 3 3 4 3 3 3
7 6 6 6 6 5 6 6 6 6 6 6 6 7 7 7 10 12 13 10 10 9 8 8 8 9 11 10 15 18 17 16 12 8 8 5 4 2 3 4 4 4 2
7 7 7 8 7 6 7 6 6 6 6 6 7 7 8 8 12 14 15 11 10 9 8 9 9 8 9 11 12 13 12 10 11 10 9 6 5 4 3 3 4 4 3
6 6 6 8 8 8 7 6 6 7 7 7 7 8 9 9 11 13 13 10 11 10 9 8 9 10 13 15 13 13 11 9 14 16 15 14 13 11 9 5 4 4 4
5 5 6 7 8 8 8 7 7 8 8 8 8 8 8 8 10 12 12 10 11 9 8 9 11 11 11 12 10 11 11 7 7 9 10 11 11 12 11 6 4 4 2
5 6 6 6 7 8 8 7 8 9 9 9 9 8 8 9 10 11 11 9 10 10 8 7 7 12 12 11 9 8 10 8 7 8 7 6 6 7 8 8 6 4 3
7 7 6 6 7 8 9 9 9 10 10 10 9 8 7 7 9 11 13 12 11 10 9 7 8 13 13 12 9 11 13 10 7 7 6 5 5 4 5 8 10 9 5
8 7 6 7 7 7 8 9 9 8 8 8 8 8 7 6 8 13 14 15 14 10 8 11 13 14 13 10 12 13 10 7 7 6 6 4 3 3 5 7 9 11 11
8 7 7 7 8 7 6 6 7 7 8 8 8 9 8 6 6 7 8 9 12 11 9 11 14 13 10 9 8 7 6 5 6 5 4 3 3 4 4 3 4 4 4
8 8 7 8 9 8 7 6 5 4 6 9 8 9 10 8 6 9 9 7 7 8 8 7 6 6 6 6 5 5 5 5 5 4 4 4 4 4 3 3 3 3 3
9 8 7 8 8 8 9 9 14 10 12 12 11 10 8 10 12 12 11 11 11 12 9 7 6 6 6 5 5 4 4 4 4 4 4 4 3 3 3 3 3 3 2
9 8 7 8 8 8 8 9 10 10 14 13 12 13 12 13 13 13 12 12 12 11 7 6 6 5 5 5 4 4 3 3 3 4 4 3 3 2 2 2 2 2 2
9 10 9 7 7 8 8 8 8 9 9 6 8 11 12 12 12 12 13 11 7 5 5 5 5 5 5 5 4 4 3 3 3 3 3 2 2 2 2 2 2 1 2
8 8 8 8 7 8 8 8 8 8 8 7 6 6 8 10 10 10 9 6 5 4 4 5 5 5 5 4 4 4 4 3 3 3 2 2 2 2 1 1 1 3 2
7 12 10 8 8 8 8 8 7 8 8 7 6 6 5 5 5 5 4 4 4 4 4 5 4 5 5 4 4 4 4 3 3 2 2 1 1 1 0 1 1 2 2
7 9 12 9 8 8 7 7 7 7 7 7 6 6 8 6 5 5 5 4 4 4 5 5 5 5 4 4 4 5 5 4 3 3 2 1 1 0 1 1 2 2 2
6 6 6 7 7 7 7 7 7 7 8 7 5 5 8 5 4 4 4 4 4 5 6 6 5 6 7 7 6 5 5 4 3 3 2 1 1 0 1 1 2 2 3
6 7 7 6 7 9 8 7 7 7 7 7 7 6 5 5 4 4 4 4 4 6 9 10 8 7 9 11 12 10 6 6 6 6 4 2 1 1 1 1 2 3 4
6 7 7 6 6 6 7 7 7 7 7 7 7 6 6 5 5 5 5 4 6 7 10 11 11 12 12 12 12 12 12 11 10 9 7 4 2 2 2 2 3 4 4
5 6 6 6 6 7 7 7 7 7 7 7 7 6 6 5 5 5 5 6 7 7 10 12 13 14 15 15 14 13 13 12 11 9 7 5 3 3 3 3 4 4 5
5 6 6 6 6 6 7 7 7 7 7 7 7 6 6 6 6 6 5 5 6 7 9 12 15 16 17 17 16 16 14 13 12 11 9 6 4 3 3 3 5 5 6
Wind_Direction
165 167 165 167 170 167 171 179 182 182 178 181 188 186 183 178 168 165 170 162 169 186 183 164 172 147 128 112 111 115 123 131 138 94 52 52 61 76 79 86 88 87 87
149 146 148 146 147 156 166 175 171 172 172 172 166 163 165 159 159 160 166 165 162 166 164 140 140 129 110 107 104 99 107 118 129 123 79 53 60 79 82 79 78 84 88
138 135 138 138 140 147 158 159 155 157 156 151 149 156 153 149 143 143 144 137 131 135 135 125 118 113 101 94 94 94 95 99 103 117 102 62 58 61 68 70 66 60 74
141 138 144 148 147 147 145 144 145 147 145 141 139 142 136 132 133 133 127 121 112 100 101 104 104 107 109 103 94 95 101 99 97 103 97 73 57 40 60 64 55 41 49
138 139 147 143 136 129 125 122 118 120 125 122 121 122 123 130 139 135 127 120 112 100 89 86 88 92 93 95 100 100 104 103 100 100 95 82 65 60 60 52 64 56 45
135 138 133 125 122 119 113 106 101 100 102 103 105 111 110 117 126 129 126 118 115 110 101 90 84 83 86 85 87 88 96 108 114 108 99 97 84 64 58 72 74 63 42
135 135 132 127 120 116 116 107 104 100 98 97 96 98 99 103 114 117 117 117 113 111 109 104 97 91 88 91 82 78 75 80 95 110 105 100 94 79 84 75 69 72 63
134 137 135 129 125 119 115 113 108 103 101 98 96 98 96 98 107 110 108 103 100 98 99 104 107 100 100 102 95 84 76 71 81 88 99 96 95 92 98 112 109 91 57
131 139 141 139 135 130 127 123 116 110 101 97 99 100 99 97 103 109 111 108 101 93 89 90 100 101 104 104 102 98 90 79 80 87 87 85 81 77 80 79 71 78 53
134 136 135 137 135 133 130 124 114 109 106 102 95 94 99 99 100 109 113 116 111 104 92 85 87 96 101 103 107 109 105 98 91 80 72 68 65 61 62 73 101 98 83
126 119 118 126 130 131 125 119 115 112 106 100 95 87 88 95 98 99 107 116 120 114 105 96 88 93 92 94 100 107 114 113 100 92 81 65 54 48 44 52 71 105 103
120 115 113 118 125 128 124 120 119 118 113 108 102 93 82 85 94 98 97 102 111 112 110 106 100 94 89 89 90 93 95 94 91 85 78 65 55 43 32 41 52 61 72
123 122 119 115 113 120 126 129 126 123 123 121 117 110 100 92 92 93 96 99 100 103 106 108 101 94 88 83 84 88 88 91 92 90 85 72 59 50 46 42 37 44 44
129 127 122 119 113 107 109 119 128 133 133 131 129 125 120 113 110 108 106 104 101 102 103 98 92 88 87 85 81 77 77 92 104 103 96 71 53 50 46 44 41 26 32
127 125 121 118 116 106 92 83 105 104 136 139 140 139 138 135 134 127 125 121 122 121 115 100 93 92 86 81 76 72 74 79 84 82 81 71 61 55 38 32 47 44 42
133 129 125 123 120 116 111 90 65 80 91 99 112 122 117 124 127 121 119 120 120 121 113 114 113 109 108 108 103 90 80 85 88 89 83 81 78 68 45 31 42 49 34
132 129 124 124 125 124 123 121 110 80 75 84 100 111 117 124 123 121 120 117 117 114 109 119 124 126 124 122 120 114 105 101 99 95 94 89 83 69 58 39 30 27 5
121 124 126 127 126 123 121 121 123 124 117 94 86 104 116 121 122 121 122 112 105 99 117 129 134 136 134 132 132 127 118 106 97 96 93 88 83 77 60 34 16 4 338
120 124 124 125 122 121 121 119 119 120 122 122 114 107 113 114 111 118 122 119 131 132 137 140 144 143 142 140 140 135 130 127 124 113 102 95 89 82 57 359 337 342 351
120 129 130 128 126 126 126 128 129 131 132 135 141 145 139 125 131 138 137 138 142 147 152 152 154 151 149 149 145 137 130 130 130 124 127 122 109 106 115 304 314 320 311
125 132 133 129 131 134 136 137 139 140 143 147 154 164 158 148 154 160 161 163 166 165 161 159 158 157 155 154 150 146 143 149 155 154 154 158 142 118 283 282 294 300 304
128 131 136 136 135 136 137 139 142 145 150 149 151 157 160 144 151 167 176 178 176 174 169 161 162 168 168 165 161 158 157 163 173 172 174 183 200 265 304 311 310 306 307
131 133 133 134 136 141 141 143 148 151 153 155 157 159 162 168 175 182 188 181 172 175 172 167 165 172 177 177 175 170 171 183 188 181 175 185 210 239 254 275 289 299 301
135 138 141 141 140 146 150 155 158 161 161 162 166 171 177 182 188 194 194 186 178 179 177 174 175 179 177 179 183 186 188 191 191 187 184 185 206 233 254 274 284 289 290
146 147 150 153 155 157 158 159 161 164 168 171 175 180 184 186 189 193 191 185 181 183 186 184 183 182 182 182 186 191 194 196 198 198 196 194 209 230 252 269 277 285 286
153 155 157 157 158 158 158 159 163 167 172 178 181 185 187 188 189 189 186 182 184 188 190 191 190 190 192 193 196 199 201 205 209 211 209 207 217 239 254 264 278 280 285
Height
1514 1515 1516 1517 1518 1520 1521 1523 1525 1527 1529 1531 1532 1534 1536 1538 1540 1541 1542 1544 1545 1547 1548 1549 1550 1552 1553 1554 1555 1556 1557 1558 1559 1560 1560 1561 1562 1562 1562 1563 1563 1563 1563
1512 1513 1514 1515 1516 1518 1519 1521 1523 1524 1526 1528 1530 1532 1533 1535 1536 1538 1539 1541 1542 1544 1545 1546 1547 1549 1550 1551 1552 1553 1554 1555 1556 1557 1558 1559 1559 1560 1560 1561 1561 1561 1561
1511 1512 1513 1514 1515 1516 1518 1519 1521 1522 1524 1525 1527 1529 1531 1532 1534 1536 1537 1538 1540 1541 1542 1543 1544 1546 1547 1549 1550 1551 1552 1553 1554 1554 1555 1556 1557 1558 1558 1559 1559 1559 1559
1510 1511 1512 1513 1513 1515 1516 1517 1519 1520 1521 1523 1525 1526 1528 1530 1532 1533 1534 1536 1537 1538 1539 1541 1542 1544 1545 1546 1547 1548 1549 1550 1552 1552 1553 1554 1555 1556 1556 1556 1557 1557 1557
1510 1510 1511 1512 1513 1514 1515 1516 1517 1519 1519 1521 1523 1525 1526 1528 1529 1531 1533 1534 1535 1536 1538 1539 1540 1542 1543 1545 1546 1547 1548 1549 1550 1551 1552 1552 1553 1554 1554 1555 1555 1555 1556
1509 1510 1511 1512 1512 1513 1514 1515 1516 1517 1518 1520 1521 1523 1524 1526 1528 1530 1531 1532 1534 1535 1536 1538 1539 1541 1542 1544 1545 1546 1547 1548 1549 1550 1550 1551 1552 1553 1553 1554 1554 1554 1554
1509 1510 1511 1511 1512 1513 1514 1515 1516 1517 1518 1520 1521 1522 1523 1525 1527 1528 1530 1531 1533 1534 1535 1537 1538 1540 1541 1542 1544 1545 1546 1547 1548 1549 1549 1550 1551 1552 1552 1553 1553 1553 1554
1508 1509 1510 1510 1512 1513 1514 1515 1516 1517 1519 1520 1521 1522 1523 1524 1526 1527 1529 1530 1531 1533 1535 1536 1538 1539 1541 1542 1543 1544 1545 1546 1548 1548 1549 1550 1552 1552 1553 1553 1553 1553 1554
1508 1509 1510 1511 1511 1513 1514 1515 1516 1517 1518 1519 1520 1521 1522 1523 1525 1527 1528 1529 1531 1533 1535 1537 1538 1539 1541 1543 1543 1544 1545 1547 1548 1549 1550 1551 1552 1553 1553 1553 1552 1552 1552
1507 1508 1509 1510 1511 1512 1513 1515 1516 1517 1518 1519 1520 1521 1523 1524 1525 1527 1528 1529 1531 1532 1534 1536 1539 1540 1542 1544 1545 1545 1545 1547 1549 1550 1551 1552 1553 1553 1553 1553 1553 1553 1552
1507 1508 1508 1509 1510 1512 1513 1514 1515 1516 1518 1519 1520 1522 1523 1525 1526 1527 1529 1530 1531 1532 1534 1537 1539 1541 1543 1545 1546 1547 1547 1549 1550 1551 1552 1553 1553 1554 1554 1553 1553 1553 1553
1505 1506 1507 1508 1510 1511 1512 1513 1515 1516 1517 1519 1520 1522 1524 1525 1527 1529 1530 1532 1533 1534 1536 1538 1540 1542 1544 1546 1547 1548 1549 1550 1551 1552 1553 1554 1554 1554 1554 1554 1554 1554 1553
1504 1505 1506 1507 1508 1510 1511 1512 1514 1515 1517 1518 1520 1521 1524 1526 1528 1530 1532 1533 1535 1536 1538 1540 1542 1544 1546 1547 1549 1550 1551 1552 1553 1554 1554 1555 1555 1556 1555 1555 1555 1554 1553
1502 1503 1505 1506 1507 1509 1511 1512 1513 1515 1516 1518 1519 1521 1524 1526 1528 1530 1533 1535 1536 1538 1540 1542 1544 1546 1547 1549 1551 1552 1553 1554 1555 1555 1556 1556 1557 1557 1556 1556 1555 1554 1553
1501 1502 1503 1505 1507 1508 1510 1512 1514 1515 1517 1518 1520 1522 1524 1526 1529 1532 1534 1536 1538 1540 1542 1543 1545 1547 1549 1550 1552 1554 1555 1556 1556 1557 1557 1557 1557 1557 1557 1556 1556 1555 1553
1499 1500 1502 1504 1506 1507 1509 1511 1514 1516 1518 1520 1522 1524 1526 1528 1531 1533 1536 1538 1540 1542 1544 1545 1547 1549 1551 1552 1554 1555 1556 1557 1557 1558 1558 1558 1558 1558 1557 1557 1556 1555 1554
1498 1500 1502 1504 1505 1507 1509 1510 1512 1516 1519 1522 1524 1526 1528 1530 1533 1535 1538 1540 1542 1545 1546 1547 1549 1551 1553 1554 1555 1557 1557 1558 1559 1559 1559 1559 1559 1558 1558 1557 1556 1555 1554
1499 1500 1502 1504 1505 1507 1510 1511 1513 1515 1518 1522 1525 1528 1530 1533 1535 1537 1540 1542 1544 1546 1548 1550 1551 1553 1554 1556 1557 1558 1558 1559 1559 1560 1560 1559 1559 1558 1558 1557 1556 1555 1554
1499 1500 1503 1504 1506 1508 1510 1513 1515 1518 1520 1523 1526 1529 1532 1535 1537 1540 1542 1544 1545 1547 1550 1552 1553 1554 1556 1557 1557 1558 1559 1559 1560 1560 1560 1559 1559 1558 1557 1557 1556 1555 1553
1500 1502 1504 1505 1507 1510 1512 1514 1517 1519 1522 1525 1528 1530 1533 1536 1538 1541 1544 1546 1547 1549 1551 1553 1554 1556 1557 1557 1558 1559 1559 1559 1559 1560 1559 1559 1558 1558 1557 1556 1555 1554 1552
1502 1504 1506 1507 1509 1511 1514 1516 1519 1521 1524 1526 1529 1532 1535 1538 1540 1542 1545 1547 1549 1550 1552 1553 1555 1556 1557 1558 1558 1558 1559 1559 1559 1559 1559 1558 1557 1557 1556 1555 1554 1552 1551
1504 1506 1508 1509 1511 1514 1516 1519 1521 1523 1526 1528 1531 1534 1537 1539 1541 1543 1545 1548 1549 1551 1553 1554 1555 1556 1557 1557 1558 1558 1558 1558 1558 1558 1557 1557 1556 1555 1554 1553 1552 1551 1549
1506 1508 1510 1512 1514 1516 1519 1521 1523 1525 1527 1530 1533 1535 1538 1540 1542 1544 1546 1548 1550 1551 1553 1554 1555 1556 1556 1557 1557 1557 1557 1557 1557 1556 1556 1555 1554 1553 1552 1551 1550 1549 1547
1509 1510 1512 1514 1516 1518 1520 1522 1524 1527 1529 1531 1534 1536 1538 1540 1542 1544 1546 1548 1549 1551 1552 1553 1554 1555 1555 1556 1556 1556 1556 1556 1555 1555 1554 1554 1553 1552 1550 1549 1548 1547 1545
1511 1513 1514 1516 1517 1519 1521 1524 1526 1528 1530 1532 1534 1536 1538 1540 1542 1544 1545 1547 1548 1549 1551 1552 1553 1553 1554 1554 1554 1554 1554 1554 1553 1553 1552 1551 1550 1549 1548 1547 1545 1544 1542
1513 1514 1516 1517 1519 1521 1523 1525 1527 1528 1530 1532 1534 1536 1538 1539 1541 1543 1544 1546 1547 1548 1549 1550 1551 1551 1552 1552 1552 1552 1552 1552 1551 1551 1550 1549 1548 1547 1545 1544 1543 1541 1539